📊 Raw Sensor Data
Showing records 38276 to 38300 of 84,926 total
| ID | Distance (ft) | Battery V | Battery A | Int Temp (°F) | Int Humid (%) | Ext Temp (°F) | Solar V | RSSI | SNR | Time Stamp |
|---|---|---|---|---|---|---|---|---|---|---|
| 46663 | 15.2 | 3.93 | 0 | 95 | 43 | 88 | 5.10 | -69 | 8 | 07/18/2025 03:00 PM |
| 46662 | 15.2 | 3.93 | 0 | 94 | 42 | 88 | 5.10 | -70 | 8 | 07/18/2025 02:45 PM |
| 46661 | 15.2 | 3.93 | 0 | 93 | 42 | 84 | 5.10 | -71 | 8 | 07/18/2025 02:30 PM |
| 46660 | 15.2 | 3.93 | 0 | 93 | 42 | 87 | 5.10 | -69 | 8 | 07/18/2025 02:15 PM |
| 46659 | 15.2 | 3.93 | 0 | 92 | 41 | 85 | 5.10 | -70 | 8 | 07/18/2025 02:00 PM |
| 46658 | 15.2 | 3.96 | 0 | 90 | 42 | 84 | 5.10 | -70 | 8 | 07/18/2025 01:45 PM |
| 46657 | 15.2 | 3.93 | 0 | 89 | 41 | 83 | 5.10 | -69 | 7 | 07/18/2025 01:30 PM |
| 46656 | 15.2 | 3.93 | 0 | 87 | 42 | 82 | 5.10 | -70 | 8 | 07/18/2025 01:15 PM |
| 46655 | 15.2 | 3.93 | 0 | 85 | 42 | 81 | 5.10 | -71 | 7 | 07/18/2025 01:00 PM |
| 46654 | 15.2 | 4.00 | 0 | 84 | 43 | 80 | 5.10 | -70 | 8 | 07/18/2025 12:45 PM |
| 46653 | 15.2 | 3.93 | 0 | 82 | 43 | 79 | 5.10 | -69 | 8 | 07/18/2025 12:30 PM |
| 46652 | 15.3 | 3.95 | 0 | 81 | 43 | 77 | 5.10 | -70 | 8 | 07/18/2025 12:15 PM |
| 46651 | 15.3 | 3.93 | 0 | 81 | 43 | 80 | 5.10 | -70 | 8 | 07/18/2025 12:00 PM |
| 46650 | 15.3 | 3.93 | 0 | 79 | 43 | 77 | 5.10 | -70 | 8 | 07/18/2025 11:45 AM |
| 46649 | 15.3 | 3.93 | 0 | 78 | 43 | 76 | 5.10 | -70 | 8 | 07/18/2025 11:30 AM |
| 46648 | 15.3 | 3.93 | 0 | 77 | 43 | 78 | 5.10 | -69 | 8 | 07/18/2025 11:15 AM |
| 46647 | 15.3 | 3.93 | 0 | 76 | 43 | 78 | 5.10 | -70 | 8 | 07/18/2025 11:00 AM |
| 46646 | 15.3 | 3.94 | 0 | 75 | 43 | 73 | 5.10 | -69 | 8 | 07/18/2025 10:45 AM |
| 46645 | 15.3 | 3.93 | 0 | 74 | 43 | 76 | 5.10 | -68 | 8 | 07/18/2025 10:30 AM |
| 46644 | 15.3 | 3.93 | 0 | 73 | 43 | 73 | 5.10 | -70 | 7 | 07/18/2025 10:15 AM |
| 46643 | 15.3 | 3.93 | 0 | 71 | 44 | 71 | 5.10 | -69 | 8 | 07/18/2025 10:00 AM |
| 46642 | 15.3 | 4.12 | 0 | 71 | 43 | 71 | 5.10 | -70 | 8 | 07/18/2025 09:45 AM |
| 46641 | 15.3 | 4.12 | 0 | 70 | 44 | 71 | 5.10 | -68 | 8 | 07/18/2025 09:30 AM |
| 46640 | 15.3 | 3.93 | 0 | 70 | 44 | 72 | 5.10 | -69 | 8 | 07/18/2025 09:15 AM |
| 46639 | 15.3 | 3.93 | 0 | 69 | 44 | 70 | 5.10 | -69 | 8 | 07/18/2025 09:00 AM |